Location: hvezdarna zebrak
(49.8744°N, 13.8989°E)
Time: 14:32:05
(UTC+01:00)

BlueWalker 3 - Visible Passes

Search period start: 29 January 2023 00:00
Search period end: 08 February 2023 00:00
Orbit: 499 x 517 km, 53.2° (Epoch: 28 January)

Date Brightness Start Highest point End Pass type
(mag) Time Alt. Az. Time Alt. Az. Time Alt. Az.
29 Jan 2.4 17:47:08 10° SW 17:50:51 48° SSE 17:54:00 14° ENE visible
29 Jan 2.7 19:25:38 10° W 19:28:48 51° WNW 19:28:48 51° WNW visible
30 Jan 2.4 17:28:10 10° SW 17:31:56 50° SSE 17:35:43 10° ENE visible
30 Jan 2.1 19:06:43 10° W 19:10:33 60° NNW 19:10:44 59° N visible
31 Jan 2.2 18:47:47 10° W 18:51:38 59° NNW 18:52:38 43° NE visible
31 Jan 5.0 20:26:47 10° WNW 20:27:25 14° WNW 20:27:25 14° WNW visible
01 Feb 2.3 18:28:51 10° W 18:32:41 58° NNW 18:34:30 28° ENE visible
01 Feb 4.4 20:07:50 10° WNW 20:09:17 21° WNW 20:09:17 21° WNW visible
02 Feb 2.3 18:09:54 10° W 18:13:44 57° N 18:16:21 19° ENE visible
02 Feb 3.6 19:48:53 10° WNW 19:51:08 31° NW 19:51:08 31° NW visible
03 Feb 2.3 17:50:57 10° W 17:54:46 56° N 17:58:11 13° ENE visible
03 Feb 2.7 19:29:54 10° WNW 19:32:58 46° NW 19:32:58 46° NW visible
04 Feb 2.3 17:31:58 10° W 17:35:47 55° N 17:39:38 10° ENE visible
04 Feb 2.1 19:10:55 10° WNW 19:14:46 58° NNE 19:14:49 58° NNE visible
05 Feb 2.1 18:51:55 10° WNW 18:55:47 59° NNE 18:56:40 45° ENE visible
05 Feb 4.9 20:30:38 10° WNW 20:31:28 16° WNW 20:31:28 16° WNW visible
06 Feb 2.1 18:32:54 10° WNW 18:36:46 60° NNE 18:38:34 29° E visible
06 Feb 4.2 20:11:37 10° WNW 20:13:21 24° W 20:13:21 24° W visible
07 Feb 2.1 18:13:53 10° WNW 18:17:44 61° NNE 18:20:30 18° E visible
07 Feb 3.4 19:52:35 10° WNW 19:55:18 37° WSW 19:55:18 37° WSW visible
